TimePDT,TemperatureF,Dew PointF,Humidity,Sea Level PressureIn,VisibilityMPH,Wind Direction,Wind SpeedMPH,Gust SpeedMPH,PrecipitationIn,Events,Conditions,WindDirDegrees,DateUTC
12:53 AM,79.0,63.0,58,29.82,10.0,SW,3.5,-,N/A,,Mostly Cloudy,230,2013-09-03 07:53:00
1:53 AM,77.0,63.0,62,29.82,10.0,Calm,Calm,-,N/A,,Mostly Cloudy,0,2013-09-03 08:53:00
2:53 AM,75.9,63.0,64,29.81,10.0,Calm,Calm,-,N/A,,Mostly Cloudy,0,2013-09-03 09:53:00
3:53 AM,77.0,63.0,62,29.81,10.0,Calm,Calm,-,N/A,,Mostly Cloudy,0,2013-09-03 10:53:00
4:53 AM,77.0,64.0,64,29.80,10.0,Calm,Calm,-,N/A,,Mostly Cloudy,0,2013-09-03 11:53:00
6:53 AM,77.0,64.0,64,29.83,10.0,Calm,Calm,-,N/A,,Mostly Cloudy,0,2013-09-03 13:53:00
7:53 AM,78.1,63.0,60,29.85,10.0,Calm,Calm,-,N/A,,Mostly Cloudy,0,2013-09-03 14:53:00
8:53 AM,82.0,63.0,52,29.86,10.0,Calm,Calm,-,N/A,,Mostly Cloudy,0,2013-09-03 15:53:00
9:53 AM,84.0,63.0,49,29.86,10.0,Calm,Calm,-,N/A,,Mostly Cloudy,0,2013-09-03 16:53:00
10:53 AM,87.1,61.0,41,29.86,10.0,South,3.5,-,N/A,,Mostly Cloudy,180,2013-09-03 17:53:00
11:53 AM,91.9,59.0,33,29.85,10.0,Variable,5.8,-,N/A,,Partly Cloudy,0,2013-09-03 18:53:00
12:53 PM,97.0,54.0,23,29.82,10.0,West,10.4,-,N/A,,Partly Cloudy,270,2013-09-03 19:53:00
1:53 PM,100.0,54.0,21,29.80,10.0,West,11.5,-,N/A,,Partly Cloudy,270,2013-09-03 20:53:00
2:53 PM,100.0,54.0,21,29.77,10.0,West,13.8,19.6,N/A,,Scattered Clouds,270,2013-09-03 21:53:00
3:53 PM,98.1,57.0,25,29.76,10.0,West,12.7,-,N/A,,Scattered Clouds,260,2013-09-03 22:53:00
4:53 PM,97.0,59.0,28,29.76,10.0,WSW,17.3,-,N/A,,Scattered Clouds,240,2013-09-03 23:53:00
5:53 PM,95.0,54.0,25,29.76,10.0,West,15.0,-,N/A,,Scattered Clouds,260,2013-09-04 00:53:00
6:53 PM,91.0,54.0,28,29.77,10.0,West,12.7,-,N/A,,Scattered Clouds,260,2013-09-04 01:53:00
7:53 PM,87.1,57.0,36,29.78,10.0,WSW,9.2,-,N/A,,Scattered Clouds,250,2013-09-04 02:53:00
8:53 PM,84.9,57.0,38,29.81,10.0,WSW,8.1,-,N/A,,Scattered Clouds,250,2013-09-04 03:53:00
9:53 PM,82.9,57.9,42,29.83,10.0,West,4.6,-,N/A,,Partly Cloudy,260,2013-09-04 04:53:00
10:53 PM,82.0,57.0,42,29.84,10.0,Variable,3.5,-,N/A,,Partly Cloudy,0,2013-09-04 05:53:00